Back to catalog

STARLINK-1942

AliveCommunicationsVLEO
NORAD 46794·PAYLOAD·🇺🇸 United States

Launched Oct 24, 2020 from Cape Canaveral Space Force Station

Loading…

Next Passes (next 24 hours)

TLE

FreshSource: CelesTrak SupGP

Epoch: Sep 14, 2026, 17:15 UTC

1 46794C 20074BH  26257.71923611  .01247600  00000+0  92642-3 0  2577
2 46794  53.0221  79.1082 0009360 280.5247 106.9986 16.14000658    19

Track STARLINK-1942 in real time with AllMySat

Download on the App Store